www.pogodaiklimat.ru

АРХИВ ПОГОДЫ в Юкайе

Время (UTC), дата Ветер
(напр.,м/с)
 
Видим.   Явления Облачность Т
(С)
Тd
(С)
f
(%)
Тe
(С)
Тes
(С)
Комфортность

P
(гПа)

Po
(гПа)
Тmin
(С)
Tmax
(С)
R
(мм)
SD
(см)
00:56 27.09 С  16 км    ясно  +31.0  -4.0  10  +27  +28  жарко  1013.0  991.1  +20.0  +36.1     
01:56 27.09 СЗ  16 км    ясно  +27.2  -1.1  16  +25  +25  комфорт  1013.6  991.8  +20.0  +36.1     
02:56 27.09 штиль  16 км    ясно  +23.0  0.0  22  +22  +22  комфорт  1014.1  992.5  +20.0  +36.1     
03:56 27.09 штиль  16 км    ясно  +22.0  -1.0  21  +21  +21  комфорт  1014.0  992.5  +20.0  +36.1     
04:56 27.09 штиль  16 км    ясно  +20.6  +0.6  26  +20  +20    1014.0  992.5  +20.0  +36.1     
05:56 27.09 штиль  16 км    ясно  +17.0  +3.0  39  +17  +17    1013.8  992.1  +11.1  +20.6     
06:56 27.09 штиль  16 км    ясно  +15.0  +3.9  47  +15  +15    1013.7  992.1  +11.1  +20.6     
07:56 27.09 штиль  16 км    ясно  +13.9  +3.3  49  +14  +14    1013.6  992.1  +11.1  +20.6     
08:56 27.09 штиль  16 км    ясно  +13.0  +4.0  54  +13  +13    1013.6  992.1  +11.1  +20.6     
09:56 27.09 штиль  16 км    ясно  +12.0  +4.0  58  +12  +12    1013.4  991.8  +11.1  +20.6     
10:56 27.09 штиль  16 км    ясно  +11.1  +3.9  61  +11  +11    1013.4  991.8  +11.1  +20.6     
11:56 27.09 штиль  16 км    ясно  +11.0  +3.0  58  +11  +11    1013.6  991.8  +9.4  +25.0     
13:56 27.09 штиль  16 км    ясно  +12.2  +3.9  57  +12  +12    1014.1  992.5  +9.4  +25.0     
14:56 27.09 штиль  16 км    ясно  +16.0  +3.0  42  +16  +16    1014.1  992.5  +9.4  +25.0     
15:56 27.09 штиль  16 км    ясно  +21.0  +1.0  26  +21  +22  комфорт  1013.7  992.1  +9.4  +25.0     
16:56 27.09 штиль  16 км    ясно  +25.0  +1.7  22  +24  +27  комфорт  1013.2  991.5  +9.4  +25.0     
17:56 27.09 штиль  16 км    ясно  +29.0  -1.0  14  +26  +32  жарко  1012.1  990.5  +25.6  +37.2     
18:56 27.09 ЮВ  16 км    ясно  +33.0  -1.0  11  +29  +35  жарко  1011.2  989.8  +25.6  +37.2     
19:56 27.09 нст  16 км    ясно  +35.6  -2.2  +32  +38  жарко  1010.2  988.8  +25.6  +37.2     
20:56 27.09 ЮВ  16 км    ясно  +37.0  +1.0  10  +33  +37  жарко  1009.2  987.8  +25.6  +37.2     
21:56 27.09 ЮВ  16 км    ясно  +37.0  +1.0  10  +33  +36  жарко  1008.7  987.2  +25.6  +37.2     
22:56 27.09 З  16 км    ясно  +35.0  +2.2  13  +32  +35  жарко  1008.7  987.2  +25.6  +37.2     
23:56 27.09 нст  16 км    ясно  +31.0  +1.0  15  +28  +30  жарко  1009.1  987.5  +18.9  +35.0     
00:56 28.09 С  16 км    ясно  +28.0  +3.0  20  +26  +27  жарко  1009.5  987.8  +18.9  +35.0     
01:56 28.09 СЗ  16 км    ясно  +26.1  +2.2  21  +25  +25  комфорт  1009.8  988.2  +18.9  +35.0     
02:56 28.09 штиль  16 км    ясно  +24.0  +5.0  29  +24  +24  комфорт  1009.9  988.2  +18.9  +35.0     
03:56 28.09 штиль  16 км    ясно  +21.0  +5.0  35  +21  +21  комфорт  1009.9  988.5  +18.9  +35.0     
04:56 28.09 штиль  16 км    ясно  +18.9  +5.6  42  +19  +19    1009.8  988.2  +18.9  +35.0     
05:56 28.09 штиль  16 км    ясно  +17.0  +6.0  48  +17  +17    1009.8  988.2  +11.7  +18.9     
06:56 28.09 Ю  16 км    ясно  +16.7  +5.6  48  +17  +17    1009.9  988.5  +11.7  +18.9     
07:56 28.09 штиль  16 км    ясно  +15.0  +6.7  58  +15  +15    1010.2  988.8  +11.7  +18.9     
08:56 28.09 штиль  16 км    ясно  +14.0  +7.0  63  +14  +14    1010.3  988.8  +11.7  +18.9     
09:56 28.09 штиль  16 км    ясно  +13.0  +8.0  72  +13  +13    1010.0  988.5  +11.7  +18.9     
10:56 28.09 штиль  16 км    ясно  +11.7  +7.8  77  +11  +11    1010.0  988.5  +11.7  +18.9     
11:56 28.09 Ю  16 км    ясно  +11.0  +8.0  82  +9  +9    1010.1  988.5  +10.6  +18.3     
12:56 28.09 Ю  16 км    ясно  +11.0  +8.0  82  +10  +10    1010.4  988.8  +10.6  +18.3     
13:56 28.09 Ю  16 км    ясно  +11.1  +8.9  86  +9  +9    1010.7  989.2  +10.6  +18.3     
14:56 28.09 ЮВ  16 км    ясно  +13.0  +9.0  77  +11  +12    1011.0  989.5  +10.6  +18.3     
15:56 28.09 ЮВ  16 км    ясно  +16.0  +9.0  63  +16  +17    1010.7  989.2  +10.6  +18.3     
16:56 28.09 ЮВ  16 км    ясно  +18.3  +8.9  54  +19  +21    1010.5  988.8  +10.6  +18.3     
17:56 28.09 нст  16 км    ясно  +22.0  +8.0  41  +23  +28  комфорт  1009.8  988.2  +18.3  +28.9     
18:56 28.09 ЮВ  16 км    ясно  +24.0  +8.0  36  +24  +28  комфорт  1009.2  987.5  +18.3  +28.9     
19:56 28.09 ЮВ  16 км    ясно  +26.7  +8.3  31  +27  +30  жарко  1008.1  986.5  +18.3  +28.9     
20:56 28.09 ЮВ  16 км    ясно  +28.0  +9.0  30  +28  +32  жарко  1007.3  985.9  +18.3  +28.9     
21:56 28.09 ЮЗ  16 км    ясно  +28.0  +8.0  28  +28  +31  жарко  1007.1  985.5  +18.3  +28.9     
22:56 28.09 Ю  16 км    ясно  +27.8  +8.9  30  +28  +30  жарко  1006.7  985.2  +18.3  +28.9     
23:56 28.09 В  16 км    ясно  +24.0  +11.0  44  +25  +26  комфорт  1007.1  985.5  +15.0  +27.8     
00:56 29.09 нст  16 км    ясно  +19.0  +11.0  60  +20  +20    1007.9  986.2  +15.0  +27.8     

 

Местоположение метеостанции Ukiah Municipal Airport: широта 39.1258 долгота -123.2008 высота над уровнем моря 187 м.

В архиве по умолчанию представлена погода в Юкайе за последние 1-2 суток. Обновление информации о фактической погоде в базе происходит ежечасно! Архивные данные за месяц целиком и за предыдущие месяцы Вы можете получить, выбрав интересующий диапазон дат из раскрывающегося списка и нажав кнопку "Ввод!".

Внимание! Архив погоды МЕТАР в базе сайта в настоящее время начинается c 1 января 2013 г. Нет смысла пытаться выбрать более раннюю дату.

Внимание! Время в таблицах - всемирное. Для получения местного времени необходимо прибавить поправку, которая в Юкайе равна -8 ч.

Ветер - указаны скорость ветра в м/с и направление, откуда дует ветер: С - северный, СВ - северо-восточный, В - восточный, ЮВ - юго-восточный, Ю - южный, ЮЗ - юго-западный, З - западный, СЗ - северо-западный.
Видимость - горизонтальная дальность видимости в метрах или километрах. При видимости от 1 до 10 км при отсутствии осадков обычно наблюдается дымка, при ухудшении видимости до 1 км и менее - туман. В сухую погоду видимость может ухудшаться дымом, пылью или мглою.
Атмосферные явления - указаны явления, наблюдавшиеся в указанный момент времени.
Облачность - указаны через наклонную черту верхняя и нижняя облачность в баллах и высота нижней границы облаков в метрах. Внимание: облачность, как и прочие метеорологические величины в США измеряются автоматическими метеостанциями. Указанные значения в баллах носят условный характер и показывают процент времени, в течение которого, в среднем, лазерный луч высотомера отражался от облаков обратно.
T - Температура воздуха - температура, измеренная на высоте 2 м над землей.
Td - Температура точки росы - температура, при понижении до которой содержащийся в воздухе водяной пар достигнет насыщения.
f - Относительная влажность воздуха - влажноcть воздуха, измеренная на высоте 2 м над землей.
Te - Эффективная температура - температура, которую ощущает одетый по сезону человек в тени. Характеристика душности погоды. При расчете учитывается влияние влажности воздуха и скорости ветра на теплоощущения человека.
Tes - Эффективная температура на солнце - температура, которую ощущает человек, с поправкой на солнечный нагрев. Характеристика знойности погоды. Зависит от высоты солнца над горизонтом, облачности и скорости ветра. Ночью, в пасмурную погоду, а также при ветре 12 м/с и более поправка равна нулю.
P - Атмосферное давление - приведенное к уровню моря атмосферное давление.
Po - Атмосферное давление - измеренное на уровне метеостанции атмосферное давление.
Tmin - Минимальная температура - минимум температуры воздуха на высоте 2 м над землей.
Tmax - Максимальная температура - максимум температуры воздуха на высоте 2 м над землей.
R - Количество осадков - Количество выпавших осадков за 3 или 6 часов, мм.
SD - Снежный покров - Высота снежного покрова, см.